EW6092 Weather Reports


time (UTC)temp
F
wind
direction
speed
knots
gust
knots
rain 1hr
in
rain 24hr
in
rain mn
in
humidity
%
barometer
mb
20210518202151 84 99 9.6 17.4 0.00 0.00 0.00 74 1008.0
20210518201648 84 133 9.6 17.4 0.00 0.00 0.00 72 1008.3
20210518201136 84 144 8.7 15.6 0.00 0.00 0.00 72 1008.4
20210518200638 85 111 9.6 14.8 0.00 0.00 0.00 72 1008.5
20210518200131 84 142 9.6 18.2 0.00 0.00 0.00 72 1008.6
20210518195628 84 138 10.4 17.4 0.00 0.00 0.00 71 1008.7
20210518195103 84 126 10.4 20.0 0.00 0.00 0.00 69 1008.8
20210518194539 84 129 10.4 20.0 0.00 0.00 0.00 71 1008.8
20210518194034 85 142 9.6 18.2 0.00 0.00 0.00 70 1008.8
20210518193530 85 117 8.7 15.6 0.00 0.00 0.00 70 1008.8
20210518193025 85 92 8.7 14.8 0.00 0.00 0.00 70 1008.8
20210518192500 85 121 8.7 16.5 0.00 0.00 0.00 69 1008.8
20210518191956 86 144 7.0 14.8 0.00 0.00 0.00 70 1008.8
20210518191429 86 178 7.0 13.0 0.00 0.00 0.00 69 1008.9
20210518190905 86 178 7.0 13.0 0.00 0.00 0.00 68 1008.9
20210518190340 86 159 7.8 12.2 0.00 0.00 0.00 68 1009.0
20210518185812 86 148 7.8 13.9 0.00 0.00 0.00 66 1009.1
20210518185310 86 184 7.8 13.9 0.00 0.00 0.00 66 1009.1
20210518184807 86 171 7.8 13.9 0.00 0.00 0.00 66 1009.2
20210518184305 86 202 8.7 13.9 0.00 0.00 0.00 65 1009.2
20210518183737 86 196 8.7 14.8 0.00 0.00 0.00 64 1009.2
20210518183234 87 178 8.7 16.5 0.00 0.00 0.00 65 1009.2
20210518182707 87 188 7.8 16.5 0.00 0.00 0.00 65 1009.2
20210518182204 87 166 8.7 17.4 0.00 0.00 0.00 65 1009.2
20210518181639 86 172 9.6 17.4 0.00 0.00 0.00 66 1009.2
20210518181112 86 180 8.7 14.8 0.00 0.00 0.00 67 1009.1
20210518180608 86 200 7.0 14.8 0.00 0.00 0.00 65 1009.1
20210518180105 86 123 5.2 10.4 0.00 0.00 0.00 66 1009.0
20210518175602 86 146 4.3 9.6 0.00 0.00 0.00 65 1009.0
20210518175035 85 154 3.5 7.0 0.00 0.00 0.00 68 1009.0
20210518174510 85 233 3.5 7.0 0.00 0.00 0.00 69 1009.0
20210518174009 85 188 3.5 7.0 0.00 0.00 0.00 68 1008.9
20210518173505 85 241 3.5 7.0 0.00 0.00 0.00 69 1008.9
20210518172947 84 146 3.5 7.0 0.00 0.00 0.00 68 1008.9
20210518172442 84 204 3.5 6.1 0.00 0.00 0.00 67 1008.9
20210518171945 83 163 3.5 3.5 0.00 0.00 0.00 68 1008.9
20210518171220 83 150 4.3 8.7 0.00 0.00 0.00 68 1008.9
20210518170718 83 130 4.3 8.7 0.00 0.00 0.00 69 1008.9
20210518170150 83 144 3.5 7.0 0.00 0.00 0.00 67 1008.7
20210518165648 83 169 2.6 6.1 0.00 0.00 0.00 68 1008.8
20210518165122 82 123 3.5 7.0 0.00 0.00 0.00 69 1008.8
20210518164618 82 139 3.5 7.0 0.00 0.00 0.00 70 1008.8
20210518164053 81 103 1.7 3.5 0.00 0.00 0.00 71 1008.7
20210518163529 81 103 1.7 3.5 0.00 0.00 0.00 73 1008.7
20210518163029 81 103 1.7 5.2 0.00 0.00 0.00 71 1008.7
20210518162527 81 103 2.6 5.2 0.00 0.00 0.00 73 1008.8
20210518162008 81 36 2.6 4.3 0.00 0.00 0.00 71 1008.7
20210518161505 81 34 3.5 7.8 0.00 0.00 0.00 72 1008.6
20210518160938 81 30 4.3 9.6 0.00 0.00 0.00 73 1008.5
20210518160414 81 55 3.5 7.8 0.00 0.00 0.00 72 1008.4
20210518155913 81 73 3.5 7.0 0.00 0.00 0.00 74 1008.3
20210518155354 81 74 2.6 7.8 0.00 0.00 0.00 74 1008.1
20210518154854 80 98 2.6 6.1 0.00 0.00 0.00 77 1008.0
20210518154334 79 51 3.5 6.1 0.00 0.00 0.00 76 1007.9
20210518153834 79 66 3.5 6.1 0.00 0.00 0.00 76 1007.8
20210518153316 78 355 3.5 7.0 0.00 0.00 0.00 77 1007.6
20210518152815 78 42 2.6 7.0 0.00 0.00 0.00 79 1007.6
20210518152255 77 14 2.6 5.2 0.00 0.00 0.00 82 1007.8
20210518151756 76 5 2.6 7.0 0.00 0.00 0.00 83 1007.9
20210518151234 76 5 2.6 7.0 0.00 0.00 0.00 83 1007.9
20210518150710 76 327 3.5 7.8 0.00 0.00 0.00 83 1008.1
20210518150153 76 329 3.5 7.8 0.00 0.00 0.00 83 1008.5
20210518145653 75 342 3.5 10.4 0.00 0.00 0.00 83 1007.8
20210518145134 75 65 4.3 10.4 0.00 0.00 0.00 84 1007.2
20210518144609 74 68 4.3 9.6 0.00 0.00 0.00 83 1007.1
20210518144038 74 59 5.2 10.4 0.00 0.00 0.00 83 1006.9
20210518143513 74 71 5.2 10.4 0.00 0.00 0.00 82 1006.7
20210518142947 74 83 5.2 9.6 0.00 0.00 0.00 82 1007.1
20210518142423 74 111 5.2 11.3 0.00 0.00 0.00 82 1007.2
20210518141900 73 129 5.2 11.3 0.00 0.00 0.00 83 1007.1
20210518141337 73 90 6.1 11.3 0.00 0.00 0.00 84 1007.0
20210518140811 73 117 7.0 11.3 0.00 0.00 0.00 85 1006.8
20210518140308 72 123 8.7 17.4 0.00 0.00 0.00 86 1006.6
20210518135739 72 106 10.4 18.2 0.00 0.00 0.00 87 1006.2
20210518135236 72 92 10.4 20.0 0.00 0.00 0.00 88 1005.1
20210518134706 72 90 8.7 16.5 0.00 0.00 0.00 89 1005.7
20210518134141 72 101 7.0 11.3 0.00 0.00 0.00 89 1006.8
20210518133615 72 113 5.2 9.6 0.00 0.00 0.00 90 1007.4
20210518133048 71 98 4.3 7.8 0.00 0.00 0.00 91 1007.7
20210518132522 71 107 4.3 7.0 0.00 0.00 0.00 91 1007.7
20210518132007 71 81 2.6 5.2 0.00 0.00 0.00 90 1007.9
20210518131506 71 58 0.9 5.2 0.00 0.00 0.00 90 1008.1
20210518131006 71 51 0.9 2.6 0.00 0.00 0.00 91 1008.3
20210518130504 70 51 1.7 2.6 0.00 0.00 0.00 92 1008.3
20210518130000 70 51 0.9 5.2 0.00 0.00 0.00 92 1008.4
20210518125434 70 51 1.7 5.2 0.00 0.00 0.00 92 1008.6
20210518124931 70 51 2.6 6.1 0.00 0.00 0.00 92 1008.8
20210518124416 70 78 3.5 7.0 0.00 0.00 0.00 92 1008.9
20210518123850 70 9 1.7 7.8 0.00 0.00 0.00 92 1007.5
20210518123348 70 76 2.6 7.8 0.00 0.00 0.00 92 1007.8
20210518122821 70 76 4.3 7.8 0.00 0.00 0.00 92 1007.9
20210518122316 70 92 4.3 7.8 0.00 0.00 0.00 91 1007.7
20210518121806 70 98 4.3 7.0 0.00 0.00 0.00 91 1007.8
20210518121305 70 77 2.6 6.1 0.00 0.00 0.00 91 1008.1
20210518120800 70 95 1.7 6.1 0.00 0.00 0.00 91 1008.5
20210518120256 70 94 0.9 6.1 0.00 0.00 0.00 91 1008.7
20210518115730 70 94 2.6 5.2 0.00 0.00 0.00 90 1008.8
20210518115206 70 96 2.6 6.1 0.00 0.00 0.00 90 1009.3
20210518114639 70 90 1.7 3.5 0.00 0.00 0.00 89 1009.5
20210518114114 70 90 2.6 6.1 0.00 0.00 0.00 89 1009.3
20210518113608 71 94 3.5 8.7 0.00 0.00 0.00 88 1009.4
20210518113043 71 124 4.3 7.8 0.00 0.00 0.00 88 1009.5
20210518112541 71 153 6.1 11.3 0.00 0.00 0.00 87 1009.6
20210518112034 71 159 7.0 13.0 0.00 0.00 0.00 87 1009.6
20210518111532 72 139 8.7 12.2 0.00 0.00 0.00 86 1009.4
20210518111006 72 146 7.8 13.0 0.00 0.00 0.00 85 1009.3
20210518110439 72 146 6.1 15.6 0.00 0.00 0.00 85 1009.3
20210518105913 73 145 7.0 15.6 0.00 0.00 0.00 85 1009.3
20210518105409 73 158 10.4 16.5 0.00 0.00 0.00 84 1009.3
20210518104842 73 152 7.8 16.5 0.00 0.00 0.00 84 1009.3
20210518104340 74 92 5.2 11.3 0.00 0.00 0.00 86 1009.6
20210518103813 74 134 4.3 10.4 0.00 0.00 0.00 88 1009.5
20210518103310 75 114 0.9 7.0 0.00 0.00 0.00 91 1009.1
20210518102743 75 87 0.9 2.6 0.00 0.00 0.00 91 1009.2
20210518102239 75 87 3.5 12.2 0.00 0.00 0.00 91 1009.4
20210518101713 75 87 7.0 12.2 0.00 0.00 0.00 90 1008.4
20210518101148 75 80 7.0 13.0 0.00 0.00 0.00 90 1008.3
20210518100622 75 94 7.0 13.9 0.00 0.00 0.00 90 1008.4
20210518100118 75 119 7.0 13.9 0.00 0.00 0.00 90 1008.5
20210518095552 75 103 6.1 13.9 0.00 0.00 0.00 90 1008.5
20210518095051 75 94 7.0 13.9 0.00 0.00 0.00 89 1008.6
20210518094544 75 88 7.0 15.6 0.00 0.00 0.00 89 1008.3
20210518094019 75 128 7.8 15.6 0.00 0.00 0.00 89 1007.9
20210518093515 75 78 9.6 15.6 0.00 0.00 0.00 89 1007.7
20210518092948 75 93 11.3 22.6 0.00 0.00 0.00 89 1007.4
20210518092447 75 144 11.3 22.6 0.00 0.00 0.00 89 1007.1
20210518091921 74 150 12.2 24.3 0.00 0.00 0.00 89 1006.8
20210518091417 74 144 12.2 24.3 0.00 0.00 0.00 89 1006.7
20210518090850 74 128 11.3 20.9 0.00 0.00 0.00 89 1007.0
20210518090326 74 116 10.4 16.5 0.00 0.00 0.00 89 1007.3
20210518085819 74 93 9.6 16.5 0.00 0.00 0.00 90 1007.5
20210518085317 73 167 9.6 14.8 0.00 0.00 0.00 90 1007.6
20210518084816 73 118 8.7 14.8 0.00 0.00 0.00 90 1007.6
20210518084255 73 119 9.6 15.6 0.00 0.00 0.00 91 1007.6
20210518083755 73 123 8.7 15.6 0.00 0.00 0.00 91 1007.6
20210518083255 72 107 6.1 12.2 0.00 0.00 0.00 91 1008.0
20210518082725 72 115 4.3 9.6 0.00 0.00 0.00 91 1008.6
20210518082159 72 117 3.5 7.0 0.00 0.00 0.00 91 1009.0
20210518081641 72 106 2.6 6.1 0.00 0.00 0.00 91 1008.9
20210518081139 73 88 2.6 5.2 0.00 0.00 0.00 90 1009.0
20210518080638 73 87 0.9 5.2 0.00 0.00 0.00 90 1009.1
20210518080136 73 116 0.0 0.0 0.00 0.00 0.00 89 1009.3
20210518075634 73 116 0.0 0.0 0.00 0.00 0.00 89 1009.5
20210518075114 73 116 0.0 0.0 0.00 0.00 0.00 88 1009.7
20210518074615 73 116 0.0 0.0 0.00 0.00 0.00 88 1009.8
20210518074059 73 116 0.0 0.0 0.00 0.00 0.00 88 1009.7
20210518073557 73 116 0.0 0.0 0.00 0.00 0.00 88 1009.7
20210518073039 73 116 0.0 0.0 0.00 0.00 0.00 88 1009.7
20210518072539 73 116 0.0 0.0 0.00 0.00 0.00 88 1009.7
20210518072026 73 116 0.0 0.0 0.00 0.00 0.00 87 1009.7
20210518071526 73 116 0.0 0.0 0.00 0.00 0.00 87 1009.6
20210518071023 73 116 0.0 0.0 0.00 0.00 0.00 87 1009.4
20210518070523 73 116 0.0 0.0 0.00 0.00 0.00 87 1009.2
20210518070000 73 115 0.0 3.5 0.00 0.00 0.00 87 1009.1
20210518065459 73 115 1.7 7.0 0.00 0.00 0.00 87 1008.7
20210518064939 73 120 3.5 8.7 0.00 0.00 0.00 87 1008.6
20210518064440 73 116 4.3 7.8 0.00 0.00 0.00 88 1008.6
20210518063937 73 160 4.3 8.7 0.00 0.00 0.00 88 1008.6
20210518063410 72 121 4.3 7.8 0.00 0.00 0.00 88 1008.6
20210518062900 72 119 4.3 8.7 0.00 0.00 0.00 88 1008.8
20210518062403 72 162 4.3 8.7 0.00 0.00 0.00 89 1009.2
20210518061837 72 146 3.5 7.8 0.00 0.00 0.00 89 1009.4
20210518061311 72 151 2.6 6.1 0.00 0.00 0.00 89 1009.6
20210518060745 72 151 2.6 4.3 0.00 0.00 0.00 89 1010.0
20210518060240 72 151 1.7 5.2 0.00 0.00 0.00 89 1009.9
20210518055713 72 151 1.7 5.2 0.00 0.00 0.00 89 1009.7
20210518055150 72 151 2.6 5.2 0.00 0.00 0.00 89 1009.6
20210518054645 72 151 2.6 5.2 0.00 0.00 0.00 89 1009.6
20210518054143 72 151 2.6 7.8 0.00 0.00 0.00 89 1009.6
20210518053640 71 151 3.5 7.8 0.00 0.00 0.00 90 1009.6
20210518053137 71 128 4.3 8.7 0.00 0.00 0.00 90 1009.3
20210518052630 71 144 5.2 8.7 0.00 0.00 0.00 90 1009.5
20210518052127 71 122 4.3 8.7 0.00 0.00 0.00 90 1009.6
20210518051604 71 115 3.5 7.8 0.00 0.00 0.00 90 1009.6
20210518051100 71 126 3.5 9.6 0.00 0.00 0.00 90 1009.8
20210518050529 71 119 3.5 7.0 0.00 0.00 0.00 90 1009.8
20210518050018 71 130 3.5 7.0 0.00 0.00 0.00 90 1009.8
20210518045519 71 136 3.5 7.0 0.00 0.00 0.00 90 1010.1
20210518044959 71 153 4.3 7.0 0.00 0.00 0.00 90 1010.3
20210518044457 71 155 3.5 6.1 0.00 0.00 0.00 90 1010.3
20210518043932 71 156 3.5 7.0 0.00 0.00 0.00 90 1010.3
20210518043429 71 142 3.5 7.0 0.00 0.00 0.00 90 1010.4
20210518042920 71 138 3.5 7.0 0.00 0.00 0.00 90 1010.2
20210518042416 71 148 3.5 7.0 0.00 0.00 0.00 90 1010.3
20210518041913 70 146 2.6 6.1 0.00 0.00 0.00 90 1010.3
20210518041415 70 125 1.7 7.0 0.00 0.00 0.00 90 1010.3
20210518040850 70 124 2.6 7.0 0.00 0.00 0.00 89 1010.2
20210518040352 70 124 3.5 7.0 0.00 0.00 0.00 89 1010.1
20210518035849 70 130 3.5 8.7 0.00 0.00 0.00 89 1010.0
20210518035329 70 154 3.5 8.7 0.00 0.00 0.00 89 1010.2
20210518034829 70 123 4.3 11.3 0.00 0.00 0.00 89 1010.1
20210518034314 70 110 5.2 11.3 0.00 0.00 0.00 89 1010.0
20210518033751 70 128 4.3 9.6 0.00 0.00 0.00 89 1009.8
20210518033248 69 123 4.3 9.6 0.00 0.00 0.00 89 1009.9
20210518032750 69 112 4.3 7.8 0.00 0.00 0.00 89 1009.9
20210518032246 70 121 5.2 7.8 0.00 0.00 0.00 89 1009.7
20210518031725 69 139 5.2 10.4 0.00 0.00 0.00 90 1009.7
20210518031221 69 134 5.2 12.2 0.00 0.00 0.00 90 1009.7
20210518030659 69 88 6.1 12.2 0.00 0.00 0.00 90 1009.8
20210518030130 69 104 6.1 11.3 0.00 0.00 0.00 90 1009.6
20210518025605 69 132 5.2 13.0 0.00 0.00 0.00 90 1009.7
20210518025053 69 125 5.2 10.4 0.00 0.00 0.00 91 1009.6
20210518024553 69 115 5.2 11.3 0.00 0.00 0.00 91 1009.8
20210518024051 69 96 5.2 11.3 0.00 0.00 0.00 91 1009.7
20210518023553 69 132 5.2 10.4 0.00 0.00 0.00 91 1009.8
20210518023029 69 80 6.1 13.0 0.00 0.00 0.00 91 1009.6
20210518022502 69 116 6.1 13.0 0.00 0.00 0.00 91 1009.5
20210518021943 69 65 6.1 11.3 0.00 0.00 0.00 91 1009.6
20210518021416 69 89 7.0 14.8 0.00 0.00 0.00 91 1009.6
20210518020915 70 96 7.8 15.6 0.00 0.00 0.00 90 1009.5
20210518020411 70 86 8.7 15.6 0.00 0.00 0.00 90 1009.5
20210518015845 70 67 8.7 15.6 0.00 0.00 0.00 90 1009.6
20210518015344 70 79 7.8 15.6 0.00 0.00 0.00 89 1009.6
20210518014839 70 69 7.8 13.9 0.00 0.00 0.00 89 1009.6
20210518014313 71 67 7.8 15.6 0.00 0.00 0.00 89 1009.6
20210518013808 71 78 7.0 15.6 0.00 0.00 0.00 89 1009.6
20210518013243 71 92 7.0 16.5 0.00 0.00 0.00 88 1009.7
20210518012739 72 80 7.8 16.5 0.00 0.00 0.00 88 1009.7
20210518012213 72 70 8.7 16.5 0.00 0.00 0.00 88 1009.6
20210518011646 72 92 9.6 19.1 0.00 0.00 0.00 88 1009.7
20210518011143 72 104 10.4 20.0 0.00 0.00 0.00 87 1009.6
20210518010633 72 116 10.4 20.0 0.00 0.00 0.00 87 1009.6
20210518010128 72 88 10.4 24.3 0.00 0.00 0.00 87 1009.5
20210518005604 72 89 10.4 24.3 0.00 0.00 0.00 87 1009.6
20210518005100 72 117 11.3 20.0 0.00 0.00 0.00 87 1009.6
20210518004556 72 71 11.3 19.1 0.00 0.00 0.00 88 1009.5
20210518004030 72 98 11.3 23.5 0.00 0.00 0.00 88 1009.6
20210518003527 72 62 11.3 23.5 0.00 0.00 0.00 87 1009.6
20210518003001 73 71 12.2 24.3 0.00 0.00 0.00 87 1009.4
20210518002457 73 68 12.2 24.3 0.00 0.00 0.00 86 1009.4
20210518001930 74 86 10.4 21.7 0.00 0.00 0.00 88 1009.6
20210518001428 74 54 8.7 15.6 0.00 0.00 0.00 88 1009.4
20210518000901 74 107 8.7 15.6 0.00 0.00 0.00 89 1009.3
20210518000335 73 86 8.7 15.6 0.00 0.00 0.00 89 1009.2
20210517235832 73 46 9.6 18.2 0.00 0.00 0.00 88 1009.3
20210517235332 73 37 11.3 21.7 0.00 0.00 0.00 88 1009.6
20210517234832 74 75 9.6 21.7 0.00 0.00 0.00 88 1009.2
20210517234330 74 101 7.8 15.6 0.00 0.00 0.00 89 1009.2
20210517233835 73 76 7.0 13.0 0.00 0.00 0.00 89 1009.4
20210517233306 74 44 7.0 13.0 0.00 0.00 0.00 87 1009.9
20210517232741 74 89 7.8 14.8 0.00 0.00 0.00 86 1010.2
20210517232238 74 13 8.7 15.6 0.00 0.00 0.00 85 1010.4
20210517231710 74 9 6.1 16.5 0.00 0.00 0.00 83 1010.6
20210517231147 75 26 7.8 16.5 0.00 0.00 0.00 81 1010.7
20210517230641 76 49 11.3 16.5 0.00 0.00 0.00 79 1010.8
20210517230114 80 13 7.0 16.5 0.00 0.00 0.00 74 1010.7
20210517225548 82 355 4.3 7.8 0.00 0.00 0.00 82 1010.5
20210517225044 82 84 5.2 8.7 0.00 0.00 0.00 82 1010.3
20210517224518 82 100 5.2 10.4 0.00 0.00 0.00 83 1010.2
20210517224015 82 107 6.1 10.4 0.00 0.00 0.00 82 1010.1
20210517223507 82 115 7.0 11.3 0.00 0.00 0.00 82 1010.0
20210517223004 83 117 7.0 12.2 0.00 0.00 0.00 81 1009.8
20210517222501 83 154 6.1 12.2 0.00 0.00 0.00 80 1009.8
20210517221935 83 152 6.1 13.9 0.00 0.00 0.00 79 1009.8
20210517221431 83 146 7.8 13.9 0.00 0.00 0.00 80 1009.7
20210517220905 83 139 7.8 14.8 0.00 0.00 0.00 80 1009.6
20210517220401 83 173 9.6 14.8 0.00 0.00 0.00 79 1009.7
20210517215835 84 145 8.7 16.5 0.00 0.00 0.00 78 1009.6
20210517215333 84 154 7.0 16.5 0.00 0.00 0.00 77 1009.5
20210517214816 84 115 7.8 13.0 0.00 0.00 0.00 78 1009.6
20210517214315 84 80 7.8 15.6 0.00 0.00 0.00 79 1009.5
20210517213811 83 118 8.7 15.6 0.00 0.00 0.00 80 1009.5
20210517213312 84 133 9.6 17.4 0.00 0.00 0.00 79 1009.5
20210517212808 83 128 10.4 17.4 0.00 0.00 0.00 81 1009.5
20210517212307 83 157 10.4 17.4 0.00 0.00 0.00 81 1009.5
20210517211806 83 165 9.6 17.4 0.00 0.00 0.00 82 1009.3
20210517211307 83 141 8.7 14.8 0.00 0.00 0.00 82 1009.0
20210517210805 83 161 7.8 13.9 0.00 0.00 0.00 82 1008.9
20210517210304 83 123 9.6 16.5 0.00 0.00 0.00 82 1008.6
20210517205747 83 155 12.2 22.6 0.00 0.00 0.00 81 1008.5
20210517205245 83 143 13.0 22.6 0.00 0.00 0.00 81 1008.5
20210517204743 83 157 12.2 23.5 0.00 0.00 0.00 81 1008.5
20210517204240 83 169 12.2 23.5 0.00 0.00 0.00 80 1008.5
20210517203717 83 128 14.8 22.6 0.00 0.00 0.00 82 1008.1
20210517203155 83 133 13.9 23.5 0.00 0.00 0.00 81 1008.4
20210517202637 83 165 12.2 23.5 0.00 0.00 0.00 81 1008.5